SCOUT B DEB, 3392

Orbit data source: Space-Track

SCOUT B DEB, 3392 is space debris in LEO originally from a launch on Thu, 08 Aug 1968 UTC launched from the Air Force Western Test Range (AFWTR). Debris objects in space refer to the collection of defunct objects orbiting the Earth. Examples of debris include non-operational satellites, rocket bodies, and fragments generated from explosions, collisions, or faulty payload assembly.

Loading next visibility...
SCOUT B DEB details
Identifier
3392, 1968-066H
Orbit
LEO
Last TLE update1 day ago
Origin
Flag of USNASA LaRC (US)
ManufacturerUnknown
MissionSpacecraft
Bus & MotorUnknown
MassUnknown
Launch date (UTC)
1968-08-08 (56 years ago)
Launch vehicleUnknown
Launch site
Air Force Western Test Range (AFWTR)
Object type
Payload
Rocket body
Debris
Shape & HBRUnknown
Radar Cross SectionSmall (<0.1 m²)

Expand to show TLE details & history

TLE from 1 day ago
0 SCOUT B DEB
1 03392U 68066H   24355.45407158  .00023963  00000-0  85440-2 0  9992
2 03392  80.6655  67.4292 0387926 271.5552  84.1220 13.99483924656726
Epoch: 2024-12-20T10:53Z
Definitive object data (Epoch: 2024-12-20T10:53:51.784Z)
Latitude0.00002°
Longitude174.44408°
Altitude880.438 km
Speed7.421 km/s
True Right ascension04h 29m 43s
True Declination0° 00' 00"
Sunlit
Object was in full shadow at TLE epoch
Visualization TLE readout
Latitude-77.57144°
Longitude125.48114°
Altitude644.724 km
Speed7.678 km/s
Apparent Right ascension23h 44m 33s
Apparent Declination-60° 07' 11"
Sunlit
Object is in daylight
Visualization observer readout
Local Sidereal Time11:17:33
Azimuth189.564° SSW
Elevation-69.361°
Doppler factor1
Orbital elements
Apogee altitude1,174.852 km
Perigee altitude610.735 km
Semi-major axis7,270.93 km
Eccentricity0.0387926
Inclination80.6655°
RAAN67.4292°
Arg. of periapsis271.5552°
True anomaly88.56155°
Mean anomaly84.122°
Eccentric anomaly86.34012°
Mean motion3.50073 °/min
BSTAR0.008544
Orbital period102.84 mins
Loading maneuver chart data...
Loading historical data...
Loading historical data...
Loading historical data...
Loading historical data...
Loading historical data...
Loading historical data...
Loading historical data...

SCOUT B DEB Visibility forecast

Observer location: undefined°, undefined

Span
Click to sort rows by Start time (UTC) header in descending order
Start Az.
Max El. time (UTC)
Max El. Az.
Max El.
End time (UTC)
End Az.
6 mins2024-12-21 14:57:47.056Z31.824° NE2024-12-21 15:00:47.056Z58.544° ENE14.351°2024-12-21 15:03:47.056Z86.614° E
11 mins2024-12-21 16:40:47.056Z352.118° N2024-12-21 16:45:47.056Z31.854° NE44.661°2024-12-21 16:51:47.056Z168.668° S
5 mins2024-12-21 18:26:47.056Z299.919° NW2024-12-21 18:28:47.056Z280.858° WNW14.815°2024-12-21 18:31:47.056Z251.822° W
7 mins2024-12-22 04:13:47.056Z110.024° ESE2024-12-22 04:16:47.056Z79.57° E16.83°2024-12-22 04:20:47.056Z44.263° NE
11 mins2024-12-22 05:54:47.056Z196.715° SSW2024-12-22 05:59:47.056Z301.144° NW44.146°2024-12-22 06:05:47.056Z6.475° NNE
5 mins2024-12-22 07:42:47.056Z282.439° WNW2024-12-22 07:44:47.056Z300.642° NW13.256°2024-12-22 07:47:47.056Z326.602° NNW
|